sat.trackr.live / text

‹ back to catalog

ONEWEB-0108

NORAD 48076 · 2021-025AL

PAYLOAD ACTIVE UNKNOWN

§ Identity

Operator
Country
UK
Launch date
2021-03-25
Launch site
VOSTO
Launch vehicle
Mass (kg)
RCS (m²)

Purposes: comms

External: N2YO · Heavens-Above · Gunter

§ Orbital elements

Epoch: 2026-09-20T01:39:47.654784Z

Period
109.63 min
Inclination
87.8924°
Eccentricity
0.0002103
Mean motion
13.13471212 rev/d
Perigee alt
1,208.2 km
Apogee alt
1,211.4 km
Semi-major
7,587.9 km
B*
-4.4643e-4
RAAN
301.3411°
Arg perigee
98.2873°
Mean anomaly
261.8495°
Rev number
26,610

§ Raw data

ONEWEB-01081 48076U 21025AL  26263.06930156 -.00000150  00000+0 -44643-3 0  99952 48076  87.8924 301.3411 0002103  98.2873 261.8495 13.13471212266106

JSON: /api/v1/satellites/48076 · /tle

For live sub-satellite position, see the globe view (requires WebGL).

§ Visibility from observer

Set your observer location to see the next 7 days of passes ≥ 10°. The values pass through the URL so the page stays shareable.

No JS? Fill the form by hand. The geolocation button needs JavaScript.